STARLINK-32690

Last updated on Wed Jan 29 2025 00:02:04 GMT+0000 (Coordinated Universal Time)

1 62453U 24251X 25028.36797588 .00002959 00000+0 61211-4 0 9993 2 62453 53.1602 67.0909 0001367 89.1510 270.9656 15.49321596 5387
UTC large
Height (km)
Speed (km/s)
/
Latitude / Longitude
Inclination (degrees)
Orbital Period (minutes)
Azimuth
Elevation
Range (km)
Doppler Factor

Next 0 passes for location: London (51.5072 / 0.1276)

Sorry there are no passes over London.